FW8566 Weather Reports


time (UTC)temp
C
wind
direction
speed
KPH
gust
KPH
rain 1hr
cm
rain 24hr
cm
rain mn
cm
humidity
%
barometer
mb
20260502215046 8 168 3.2 3.2 0.00 0.03 0.03 96 1011.0
20260502214543 9 168 4.8 4.8 0.00 0.03 0.03 96 1011.0
20260502214041 9 168 0.0 0.0 0.00 0.03 0.03 96 1011.0
20260502213537 9 168 0.0 0.0 0.00 0.03 0.03 96 1011.0
20260502213035 9 168 3.2 3.2 0.00 0.03 0.03 96 1011.0
20260502212534 9 168 3.2 3.2 0.00 0.03 0.03 96 1010.6
20260502212031 9 168 6.4 8.0 0.00 0.03 0.03 95 1010.6
20260502211527 9 168 0.0 0.0 0.00 0.03 0.03 95 1010.6
20260502211024 9 168 3.2 3.2 0.00 0.03 0.03 95 1011.0
20260502210521 9 168 4.8 4.8 0.00 0.03 0.03 95 1011.0
20260502210018 9 168 6.4 6.4 0.00 0.03 0.03 94 1011.0
20260502205515 9 168 3.2 3.2 0.00 0.03 0.03 93 1011.0
20260502205012 9 168 3.2 3.2 0.00 0.03 0.03 94 1011.0
20260502204509 9 168 0.0 0.0 0.00 0.03 0.03 94 1011.0
20260502204007 9 168 0.0 0.0 0.00 0.03 0.03 94 1011.0
20260502203503 9 168 3.2 3.2 0.00 0.03 0.03 95 1011.0
20260502203000 9 168 3.2 3.2 0.00 0.03 0.03 95 1011.3
20260502202456 9 168 3.2 3.2 0.00 0.03 0.03 95 1011.3
20260502201955 9 174 8.0 8.0 0.00 0.03 0.03 95 1011.3
20260502201450 9 174 8.0 8.0 0.00 0.03 0.03 95 1011.3
20260502200947 9 168 8.0 8.0 0.00 0.03 0.03 95 1011.3
20260502200443 9 168 4.8 4.8 0.00 0.03 0.03 96 1011.3
20260502195941 9 168 3.2 3.2 0.00 0.03 0.03 96 1011.3
20260502195438 9 168 6.4 6.4 0.00 0.03 0.03 96 1011.3
20260502194934 9 174 6.4 6.4 0.00 0.03 0.03 96 1011.3
20260502194431 9 174 4.8 4.8 0.00 0.03 0.03 96 1011.7
20260502193927 9 168 3.2 3.2 0.00 0.03 0.03 96 1011.7
20260502193424 9 168 9.7 11.3 0.00 0.03 0.03 96 1011.7
20260502192919 9 162 6.4 6.4 0.00 0.03 0.03 96 1011.7
20260502192417 9 198 3.2 3.2 0.00 0.03 0.03 96 1011.7
20260502191914 9 192 6.4 6.4 0.00 0.03 0.03 96 1011.7
20260502191412 9 180 9.7 9.7 0.00 0.03 0.03 96 1012.0
20260502190909 9 168 8.0 9.7 0.00 0.03 0.03 96 1012.0
20260502190406 9 174 6.4 6.4 0.00 0.03 0.03 96 1012.0
20260502185902 9 168 8.0 8.0 0.00 0.03 0.03 96 1012.0
20260502185357 9 192 12.9 14.5 0.00 0.03 0.03 96 1012.0
20260502184855 9 174 8.0 9.7 0.00 0.03 0.03 97 1012.0
20260502184350 8 186 14.5 14.5 0.00 0.03 0.03 97 1012.3
20260502183847 8 192 14.5 17.7 0.00 0.03 0.03 97 1012.3
20260502183343 8 168 8.0 8.0 0.00 0.03 0.03 97 1012.3
20260502182838 8 155 9.7 11.3 0.00 0.03 0.03 97 1012.3
20260502182334 8 168 8.0 9.7 0.00 0.03 0.03 98 1012.3
20260502181831 8 155 9.7 9.7 0.00 0.03 0.03 97 1012.3
20260502181330 8 162 11.3 12.9 0.00 0.03 0.03 98 1012.0
20260502180827 8 168 9.7 9.7 0.00 0.03 0.03 97 1012.0
20260502180324 8 168 8.0 8.0 0.00 0.03 0.03 97 1012.0
20260502170243 8 204 8.0 9.7 0.00 0.00 0.00 97 1012.3
20260502164231 8 168 9.7 9.7 0.00 0.00 0.00 95 1012.7
20260502163726 8 174 6.4 6.4 0.00 0.00 0.00 95 1012.7
20260502163223 8 180 6.4 6.4 0.00 0.00 0.00 96 1012.7
20260502162720 8 180 3.2 3.2 0.00 0.00 0.00 95 1012.7
20260502162217 8 180 6.4 6.4 0.00 0.00 0.00 96 1012.7
20260502161714 8 180 3.2 3.2 0.00 0.00 0.00 95 1012.7
20260502161210 8 222 3.2 3.2 0.00 0.00 0.00 95 1012.7
20260502160709 8 222 8.0 9.7 0.00 0.00 0.00 95 1012.7
20260502160208 8 192 6.4 6.4 0.00 0.00 0.00 95 1012.7
20260502152121 9 156 17.7 19.3 0.00 0.00 0.00 92 1013.0
20260502151618 9 168 19.3 20.9 0.00 0.00 0.00 92 1013.0
20260502151115 9 180 9.7 11.3 0.00 0.00 0.00 91 1013.0
20260502150613 9 168 6.4 6.4 0.00 0.00 0.00 90 1013.0
20260502150109 9 174 6.4 6.4 0.00 0.00 0.00 90 1013.0
20260502130457 10 251 3.2 3.2 0.00 0.00 0.00 88 1013.0
20260502123440 10 302 3.2 3.2 0.00 0.00 0.00 86 1013.4
20260502122937 10 273 3.2 3.2 0.00 0.00 0.00 86 1013.7
20260502122433 10 272 14.5 14.5 0.00 0.00 0.00 86 1013.7
20260502121932 10 244 3.2 3.2 0.00 0.00 0.00 86 1013.7
20260502121428 10 263 4.8 4.8 0.00 0.00 0.00 85 1013.4
20260502120926 10 216 6.4 6.4 0.00 0.00 0.00 86 1013.4
20260502120422 10 216 6.4 6.4 0.00 0.00 0.00 86 1013.4
20260502115919 10 216 6.4 6.4 0.00 0.00 0.00 85 1013.0
20260502115416 10 216 3.2 3.2 0.00 0.00 0.00 85 1013.0
20260502114912 10 213 3.2 3.2 0.00 0.00 0.00 86 1013.0
20260502114409 10 213 3.2 3.2 0.00 0.00 0.00 87 1012.7
20260502113906 9 213 0.0 0.0 0.00 0.00 0.00 88 1012.7
20260502113404 9 213 6.4 8.0 0.00 0.00 0.00 89 1012.7
20260502112902 9 213 0.0 0.0 0.00 0.00 0.00 90 1013.0
20260502112400 9 213 4.8 4.8 0.00 0.00 0.00 90 1013.0
20260502111857 9 213 6.4 6.4 0.00 0.00 0.00 90 1013.0
20260502111354 8 213 6.4 6.4 0.00 0.00 0.00 90 1013.0
20260502110851 8 213 3.2 3.2 0.00 0.00 0.00 90 1013.0
20260502110349 8 213 3.2 3.2 0.00 0.00 0.00 91 1013.0
20260502105846 8 213 6.4 6.4 0.00 0.00 0.00 90 1012.7
20260502105343 8 204 9.7 9.7 0.00 0.00 0.00 90 1012.7
20260502104841 8 204 6.4 6.4 0.00 0.00 0.00 91 1012.7
20260502104338 8 222 4.8 4.8 0.00 0.00 0.00 91 1012.7
20260502103835 8 222 8.0 8.0 0.00 0.00 0.00 91 1012.7
20260502103333 8 222 6.4 6.4 0.00 0.00 0.00 91 1012.7
20260502102830 8 222 9.7 9.7 0.00 0.00 0.00 92 1012.7
20260502102326 8 222 6.4 6.4 0.00 0.00 0.00 92 1012.7
20260502101824 8 222 6.4 8.0 0.00 0.00 0.00 91 1012.7
20260502101322 8 222 8.0 9.7 0.00 0.00 0.00 91 1012.7
20260502100820 8 222 6.4 6.4 0.00 0.00 0.00 89 1012.7
20260502100319 8 222 6.4 8.0 0.00 0.00 0.00 89 1012.7
20260502091253 8 216 11.3 11.3 0.00 0.00 0.00 88 1012.7
20260502090750 8 210 9.7 11.3 0.00 0.00 0.00 88 1012.7
20260502090247 8 210 12.9 14.5 0.00 0.00 0.00 87 1012.7
20260502071147 8 201 8.0 8.0 0.00 0.00 0.00 83 1012.7
20260502070645 8 207 9.7 9.7 0.00 0.00 0.00 84 1012.7
20260502070143 8 240 8.0 8.0 0.00 0.00 0.00 85 1012.7
20260502065641 8 240 6.4 8.0 0.00 0.00 0.00 84 1012.7
20260502065138 8 240 8.0 8.0 0.00 0.00 0.00 85 1012.7
20260502064637 8 240 6.4 6.4 0.00 0.00 0.00 84 1012.7
20260502064134 8 240 8.0 8.0 0.00 0.00 0.00 84 1012.7
20260502063632 8 240 8.0 8.0 0.00 0.00 0.00 84 1012.7
20260502063129 8 240 8.0 8.0 0.00 0.00 0.00 83 1012.7
20260502062626 8 258 6.4 6.4 0.00 0.00 0.00 82 1012.7
20260502062124 8 258 4.8 4.8 0.00 0.00 0.00 81 1012.7
20260502061622 8 259 4.8 4.8 0.00 0.00 0.00 81 1012.7
20260502061119 8 260 6.4 6.4 0.00 0.00 0.00 80 1012.7
20260502060619 8 237 4.8 4.8 0.00 0.00 0.00 80 1012.7
20260502060116 8 237 8.0 8.0 0.00 0.00 0.00 79 1012.7
20260502055614 8 237 9.7 9.7 0.00 0.00 0.00 80 1013.0
20260502055112 8 246 9.7 9.7 0.00 0.00 0.00 78 1013.0
20260502054611 8 257 9.7 9.7 0.00 0.00 0.00 79 1013.0
20260502054107 9 258 9.7 9.7 0.00 0.00 0.00 79 1013.0
20260502053604 9 222 6.4 6.4 0.00 0.00 0.00 79 1013.0
20260502053102 9 245 9.7 9.7 0.00 0.00 0.00 79 1013.0
20260502052600 9 244 9.7 9.7 0.00 0.00 0.00 79 1013.0
20260502052058 9 243 8.0 9.7 0.00 0.00 0.00 78 1013.0
20260502051556 9 246 9.7 11.3 0.00 0.00 0.00 77 1013.4
20260502051053 9 234 8.0 9.7 0.00 0.00 0.00 77 1013.4
20260502050549 9 232 9.7 11.3 0.00 0.00 0.00 78 1013.4
20260502050046 9 228 9.7 9.7 0.00 0.00 0.00 77 1013.7
20260502045543 9 234 8.0 8.0 0.00 0.00 0.00 77 1013.7
20260502045040 9 240 9.7 11.3 0.00 0.00 0.00 79 1013.7
20260502044536 9 243 8.0 8.0 0.00 0.00 0.00 79 1013.4
20260502044033 9 245 3.2 3.2 0.00 0.00 0.00 80 1013.4
20260502043531 9 244 6.4 6.4 0.00 0.00 0.00 80 1013.4
20260502043027 8 240 6.4 8.0 0.00 0.00 0.00 79 1013.4
20260502042522 8 246 4.8 4.8 0.00 0.00 0.00 81 1013.4
20260502042020 8 246 6.4 6.4 0.00 0.00 0.00 81 1013.4
20260502041518 8 246 6.4 6.4 0.00 0.00 0.00 81 1013.4
20260502041014 9 246 3.2 3.2 0.00 0.00 0.00 79 1013.4
20260502040511 9 246 4.8 4.8 0.00 0.00 0.00 77 1013.4
20260502040008 9 246 4.8 4.8 0.00 0.00 0.00 77 1013.7
20260502035503 9 258 6.4 6.4 0.00 0.00 0.00 75 1013.7
20260502035001 9 264 6.4 6.4 0.00 0.00 0.00 75 1013.7
20260502034459 10 265 8.0 8.0 0.00 0.00 0.00 74 1013.7
20260502033958 10 265 6.4 6.4 0.00 0.00 0.00 74 1013.7
20260502033455 10 258 8.0 8.0 0.00 0.00 0.00 73 1013.7
20260502032951 10 239 9.7 9.7 0.00 0.00 0.00 73 1013.7
20260502032448 10 263 4.8 4.8 0.00 0.00 0.00 73 1013.7
20260502031945 10 264 8.0 8.0 0.00 0.00 0.00 72 1013.7
20260502031443 10 268 9.7 9.7 0.00 0.00 0.00 72 1013.7
20260502030941 10 252 6.4 6.4 0.00 0.00 0.00 72 1013.7
20260502030439 10 282 6.4 8.0 0.00 0.00 0.00 72 1013.7
20260502025937 10 260 9.7 11.3 0.00 0.00 0.00 72 1013.4
20260502025433 10 276 14.5 17.7 0.00 0.00 0.00 72 1013.4
20260502024931 10 255 9.7 11.3 0.00 0.00 0.00 72 1013.4
20260502024430 10 246 12.9 12.9 0.00 0.00 0.00 72 1013.7
20260502023927 10 251 9.7 9.7 0.00 0.00 0.00 72 1013.7
20260502023425 10 250 12.9 12.9 0.00 0.00 0.00 72 1013.7
20260502022922 10 243 9.7 11.3 0.00 0.00 0.00 73 1013.0
20260502022418 10 266 11.3 12.9 0.00 0.00 0.00 73 1013.0
20260502021915 10 255 8.0 9.7 0.00 0.00 0.00 73 1013.0
20260502021413 10 254 14.5 14.5 0.00 0.00 0.00 73 1013.4
20260502020910 10 257 14.5 14.5 0.00 0.00 0.00 73 1013.4
20260502020408 10 256 12.9 12.9 0.00 0.00 0.00 74 1013.4
20260502015904 10 270 6.4 6.4 0.00 0.00 0.00 74 1013.7
20260502015401 10 269 8.0 9.7 0.00 0.00 0.00 75 1013.7
20260502014858 10 257 8.0 8.0 0.00 0.00 0.00 74 1013.7
20260502014355 10 264 9.7 9.7 0.00 0.00 0.00 74 1013.4
20260502013851 10 260 14.5 14.5 0.00 0.00 0.00 74 1013.4
20260502013347 10 252 8.0 8.0 0.00 0.00 0.00 75 1013.4
20260502012844 10 258 9.7 11.3 0.00 0.00 0.00 75 1013.4
20260502012342 10 252 8.0 9.7 0.00 0.00 0.00 75 1013.4
20260502011839 10 237 9.7 11.3 0.00 0.00 0.00 75 1013.4
20260502011335 10 259 14.5 14.5 0.00 0.00 0.00 74 1013.0
20260502010832 10 264 8.0 8.0 0.00 0.00 0.00 74 1013.0
20260502010328 10 252 9.7 11.3 0.00 0.00 0.00 74 1013.0
20260502005825 10 228 14.5 14.5 0.00 0.00 0.00 73 1013.0
20260502005324 10 233 9.7 11.3 0.00 0.00 0.00 73 1013.0
20260502004821 10 246 9.7 9.7 0.00 0.00 0.00 73 1013.0
20260502004316 10 264 14.5 14.5 0.00 0.00 0.00 73 1012.7
20260502003815 10 228 17.7 19.3 0.00 0.00 0.00 73 1012.7
20260502003311 10 244 14.5 14.5 0.00 0.00 0.00 73 1012.7
20260502002807 10 249 17.7 20.9 0.00 0.00 0.00 74 1012.7
20260502002306 10 204 12.9 12.9 0.00 0.00 0.00 74 1012.7
20260502001802 10 256 9.7 11.3 0.00 0.00 0.00 75 1012.7
20260502001300 10 246 9.7 11.3 0.00 0.00 0.00 76 1012.3
20260502000757 10 245 11.3 11.3 0.00 0.00 0.00 75 1012.3
20260502000256 10 222 17.7 17.7 0.00 0.00 0.00 74 1012.3
20260501235756 10 238 12.9 14.5 0.00 0.00 0.00 73 1011.7
20260501235252 10 222 14.5 14.5 0.00 0.00 0.00 72 1011.7
20260501234748 10 234 17.7 17.7 0.00 0.00 0.00 72 1011.7
20260501234245 11 238 17.7 17.7 0.00 0.00 0.00 71 1011.7
20260501233743 10 222 19.3 22.5 0.00 0.00 0.00 70 1011.7
20260501233241 10 222 9.7 11.3 0.00 0.00 0.00 72 1011.7
20260501232736 11 228 8.0 8.0 0.00 0.00 0.00 72 1011.7
20260501232233 11 250 9.7 9.7 0.00 0.00 0.00 70 1011.7
20260501231731 11 239 11.3 11.3 0.00 0.00 0.00 69 1011.7
20260501231229 11 232 11.3 11.3 0.00 0.00 0.00 67 1011.0
20260501230727 11 270 12.9 14.5 0.00 0.00 0.00 64 1011.0
20260501230226 12 233 14.5 14.5 0.00 0.00 0.00 61 1011.0
20260501225723 12 251 9.7 11.3 0.00 0.00 0.00 57 1011.3
20260501225220 12 246 9.7 9.7 0.00 0.00 0.00 56 1011.3
20260501224715 13 246 12.9 14.5 0.00 0.00 0.00 53 1011.3
20260501224213 12 252 12.9 12.9 0.00 0.00 0.00 51 1011.0
20260501223709 12 244 6.4 8.0 0.00 0.00 0.00 54 1011.0
20260501223206 12 237 12.9 12.9 0.00 0.00 0.00 55 1011.0
20260501222702 12 220 14.5 14.5 0.00 0.00 0.00 51 1011.0
20260501222159 13 247 17.7 19.3 0.00 0.00 0.00 44 1011.0
20260501221656 13 250 12.9 14.5 0.00 0.00 0.00 46 1011.0
20260501221153 13 234 14.5 14.5 0.00 0.00 0.00 45 1011.0
20260501220651 13 246 14.5 14.5 0.00 0.00 0.00 45 1011.0
20260501220148 13 255 12.9 14.5 0.00 0.00 0.00 46 1011.0
20260501215645 13 201 11.3 12.9 0.00 0.00 0.00 49 1011.0